Temperature
8 7 7 7 8 9 8 8 9 9 10 10 9 9 9 9 9 9 9 10 11 12 13 13 13 13 13 13 13 13 12 12 12 12 12 12 12 11 11 11 11 11 11 11
6 7 8 8 8 8 8 8 8 9 9 9 8 8 8 8 8 9 9 10 11 11 12 12 13 13 13 13 13 12 12 12 12 12 12 12 11 11 11 11 10 10 10 10
7 7 8 8 8 8 8 8 8 9 9 9 9 8 8 8 8 9 9 10 10 11 12 12 12 12 12 12 12 12 12 12 12 12 11 11 11 11 10 10 10 10 10 10
6 7 8 8 7 8 8 8 8 9 8 7 8 7 8 8 7 7 7 8 9 10 11 12 12 12 12 12 12 12 12 12 12 11 11 11 11 11 11 10 10 10 9 9
6 6 7 7 7 8 8 8 8 8 7 6 7 7 7 7 7 7 7 8 9 10 11 11 12 12 12 12 12 12 12 11 11 11 11 11 11 11 10 10 10 9 9 9
6 6 7 7 8 8 7 7 7 6 6 6 6 6 7 6 7 8 7 7 9 10 10 11 11 12 12 12 12 11 11 11 11 11 11 11 10 10 10 10 9 9 9 9
5 6 7 7 7 7 7 6 6 6 5 6 6 6 7 6 6 7 7 7 8 9 10 10 10 11 11 11 11 11 11 11 11 11 10 10 10 10 10 9 9 9 9 8
4 5 6 7 7 6 6 7 6 6 6 5 5 6 6 6 5 6 7 7 8 8 9 9 10 10 11 11 11 11 10 10 10 10 10 10 9 9 9 9 9 9 8 8
4 5 6 6 7 7 6 6 6 5 4 5 5 4 5 5 5 5 5 6 6 7 8 9 9 10 10 10 10 10 10 10 10 10 10 9 9 9 9 8 8 8 8 7
3 4 5 6 6 6 6 5 5 5 5 6 6 5 6 6 5 5 4 4 5 6 7 8 9 9 9 10 10 9 9 9 9 9 9 9 8 8 8 8 8 7 7 7
3 3 4 5 5 5 5 5 5 4 4 5 6 6 5 5 5 4 3 4 4 5 6 7 8 8 8 9 9 9 9 9 9 9 8 8 8 8 7 7 7 7 7 6
2 2 2 3 4 5 5 5 4 5 4 3 4 5 5 4 3 3 3 4 4 5 6 6 7 7 7 7 8 8 8 8 8 8 8 8 7 7 7 7 6 6 6 6
2 2 3 3 3 4 4 4 4 4 3 2 4 6 4 3 3 3 3 3 4 4 5 5 6 6 6 7 7 7 7 7 7 7 7 7 7 7 6 6 6 6 6 5
2 1 2 3 3 3 3 3 3 4 3 3 4 4 4 3 3 2 2 2 3 3 4 5 5 5 5 6 6 6 6 6 7 7 7 6 6 6 6 6 5 5 5 5
1 1 1 2 2 2 3 3 3 3 3 4 4 3 4 3 2 2 1 2 2 2 3 3 4 4 5 5 5 5 6 6 6 6 6 6 6 5 5 5 5 5 4 4
-1 -0 0 1 2 2 2 2 3 3 3 3 3 3 3 2 1 1 1 1 1 1 2 3 3 4 4 4 5 5 5 5 5 5 5 5 5 4 4 4 4 4 4 4
-1 -1 0 1 1 2 2 1 2 2 2 3 3 3 2 1 1 0 1 1 1 1 2 2 3 3 3 4 4 4 4 4 4 5 5 4 4 4 4 4 4 3 3 3
-2 -1 -1 -0 1 2 2 1 1 1 1 1 2 1 1 1 1 1 1 1 1 1 2 2 2 3 3 3 3 3 3 3 4 4 4 3 3 3 3 3 3 3 3 2
-1 -1 -1 -1 0 0 1 0 -0 0 0 0 1 1 0 0 0 0 1 1 1 2 2 2 2 2 3 3 3 3 3 3 3 3 3 3 3 3 3 3 2 2 2 2
-2 -2 -2 -1 0 1 0 -1 -1 0 0 -0 -0 -1 -1 -0 0 -1 0 1 1 1 1 2 2 2 2 2 2 2 2 2 2 2 2 2 2 2 2 2 2 1 1 1
-2 -2 -2 -2 -1 -1 -2 -2 -0 1 0 -1 -1 -1 -1 -1 -1 -1 -0 -0 0 1 1 1 1 1 1 2 2 2 2 1 1 1 1 1 1 1 1 1 1 1 0 0
-3 -3 -3 -3 -2 -1 -3 -2 -1 -1 -1 -1 -1 -1 -1 -2 -1 -1 -1 -0 -0 -0 0 0 0 1 1 1 1 1 1 1 1 1 1 1 1 1 0 0 0 -0 -0 -0
-4 -4 -4 -3 -3 -3 -3 -3 -2 -2 -2 -2 -2 -2 -2 -2 -2 -2 -1 -1 -1 -1 -0 -0 -0 -0 0 0 0 0 0 0 0 0 0 0 0 0 -0 -0 -0 -1 -1 -1
-4 -4 -4 -4 -4 -4 -4 -3 -2 -2 -2 -2 -2 -2 -2 -2 -3 -3 -2 -2 -2 -1 -1 -1 -1 -1 -1 -1 -1 -1 -1 -1 -0 -0 -0 -0 -0 -0 -1 -1 -1 -1 -1 -2
-5 -5 -5 -5 -5 -4 -4 -4 -3 -3 -2 -2 -2 -2 -2 -2 -3 -3 -3 -3 -2 -2 -2 -2 -1 -1 -1 -1 -1 -1 -1 -1 -1 -1 -1 -1 -1 -1 -1 -1 -2 -2 -2 -3
-7 -6 -5 -4 -4 -5 -5 -4 -4 -3 -3 -3 -3 -3 -3 -3 -3 -3 -3 -3 -3 -3 -2 -2 -2 -2 -2 -2 -2 -2 -2 -2 -2 -2 -2 -2 -2 -2 -2 -2 -2 -2 -3 -3
Wind_Speed
5 6 12 13 10 4 7 6 6 5 3 4 7 8 8 5 5 6 6 7 8 8 5 5 6 7 7 8 8 8 9 8 7 5 4 4 3 2 2 3 5 6 6 6
4 12 11 7 7 4 6 6 5 2 1 3 4 7 7 6 7 8 9 9 9 6 4 5 6 7 9 9 9 9 9 9 8 6 4 3 3 2 2 3 4 5 5 5
11 5 9 8 7 8 7 8 7 4 1 2 1 6 5 4 4 4 6 7 7 9 9 8 8 8 9 9 11 10 10 9 8 7 5 5 4 3 2 2 1 3 4 4
7 4 8 9 10 9 8 6 7 6 3 2 2 4 6 4 4 5 6 6 7 7 8 8 9 9 10 10 9 9 9 9 8 9 8 8 5 4 3 2 1 2 3 4
6 7 9 12 10 9 5 5 5 5 4 1 2 4 7 2 6 7 7 8 8 8 8 9 9 10 9 8 9 8 9 8 8 8 9 9 5 3 3 2 3 2 2 3
3 3 7 7 6 8 6 6 5 4 3 4 7 6 7 5 8 6 5 6 7 7 7 6 6 6 6 6 7 8 9 8 8 8 8 8 8 6 5 3 2 1 1 1
3 3 2 4 7 6 7 7 3 1 2 7 5 6 8 5 5 6 6 5 5 5 6 6 6 7 7 8 9 9 10 8 8 8 7 7 7 8 7 5 4 2 1 0
6 5 6 5 6 7 8 9 8 7 7 3 3 8 6 4 3 3 3 3 3 3 4 6 7 8 8 8 9 9 10 8 8 8 6 5 6 5 4 4 4 3 2 2
5 4 2 4 3 9 8 6 5 5 2 2 5 6 7 2 2 1 1 0 2 2 3 4 5 6 7 8 9 10 10 9 8 7 6 5 5 5 4 4 3 2 1 1
3 3 2 2 3 1 6 8 4 5 5 4 4 5 5 3 3 1 1 1 1 1 2 3 4 5 5 6 7 7 8 9 7 7 6 5 4 4 4 4 3 2 2 1
1 3 1 2 5 7 5 6 5 5 4 5 4 6 3 4 3 3 2 1 1 1 2 2 2 3 4 5 6 6 7 7 6 6 5 5 4 3 4 3 3 2 2 1
1 3 2 2 2 2 4 7 7 6 5 4 4 4 3 2 2 2 2 1 2 2 2 3 3 4 5 5 6 6 6 6 6 6 5 5 4 4 3 2 2 2 2 2
3 3 3 1 1 0 2 3 5 5 4 5 5 5 2 3 3 2 2 2 3 4 5 5 5 5 5 5 5 5 5 5 5 5 5 5 4 3 2 2 2 2 2 2
1 2 4 7 5 5 4 4 5 6 5 5 6 5 3 1 1 2 3 3 4 4 5 5 5 4 4 4 4 4 4 4 5 5 5 4 3 3 2 2 2 1 2 2
3 1 1 1 1 3 4 6 6 6 8 7 7 6 5 3 2 1 2 4 5 4 4 4 4 3 4 4 4 4 4 4 4 4 4 3 2 2 1 1 1 1 1 1
3 1 1 1 1 2 1 3 5 6 5 5 3 4 2 1 2 2 2 4 4 3 3 3 3 3 3 3 3 4 4 3 4 4 3 2 2 2 1 1 0 0 0 1
1 2 1 1 1 3 2 4 5 4 3 6 8 7 4 2 2 2 2 3 4 2 2 2 2 2 2 2 3 3 3 4 4 4 3 2 2 1 0 1 1 0 1 1
2 2 1 2 2 4 3 1 2 3 2 3 3 4 5 4 3 1 1 3 3 2 2 2 2 2 2 3 3 4 4 4 4 3 3 2 2 1 1 1 0 1 1 1
3 3 2 2 2 2 2 1 0 2 2 2 4 4 3 4 4 2 1 2 2 2 2 2 2 2 3 4 3 5 5 4 4 3 2 1 1 1 1 1 1 1 1 2
2 2 3 2 2 4 2 3 3 1 1 2 2 3 3 4 2 2 1 3 3 4 4 4 4 4 5 4 4 5 4 4 3 1 1 1 1 1 1 0 1 1 1 2
2 2 2 2 2 3 4 5 1 4 3 2 1 2 2 2 2 2 3 4 4 5 5 5 5 5 4 3 4 5 4 3 2 2 2 2 1 1 1 1 1 1 2 2
2 2 2 2 2 4 5 2 2 2 1 2 2 2 3 4 4 5 5 5 5 5 5 5 5 5 4 4 5 5 3 3 3 3 2 2 2 1 1 1 1 1 1 2
1 2 2 3 3 2 2 1 2 1 2 2 2 2 4 4 4 5 5 5 5 5 4 4 5 5 5 5 4 4 3 3 3 3 3 2 2 1 1 1 1 1 1 1
2 1 2 1 2 2 3 3 4 3 2 2 3 3 4 5 5 5 5 5 4 4 4 4 5 5 4 4 4 3 3 3 3 3 3 2 2 2 2 1 1 1 2 2
2 0 1 0 1 2 4 4 3 4 4 5 5 4 4 6 5 4 4 4 4 4 3 4 4 3 3 4 4 4 3 3 3 2 2 2 2 2 2 2 2 2 2 3
2 0 1 2 2 1 1 3 3 4 4 4 5 5 4 4 4 4 4 3 3 3 3 4 4 3 3 3 4 4 4 3 2 2 2 2 2 2 2 2 3 4 5 6
Wind_Direction
174 178 197 198 195 180 165 169 195 215 215 178 218 247 259 237 205 212 217 213 212 216 214 187 178 165 157 157 155 159 156 154 146 140 139 132 133 121 101 93 100 103 98 95
169 216 202 171 176 180 168 177 193 219 197 185 235 260 258 237 219 211 210 212 213 211 202 188 175 168 171 170 167 165 164 162 163 160 149 139 133 123 112 91 87 99 100 98
200 206 171 169 179 187 200 189 185 183 49 32 10 289 256 250 224 218 216 213 207 202 200 193 183 182 177 178 177 175 171 165 162 147 127 108 88 76 77 85 84 75 98 96
221 208 172 181 193 180 213 194 171 160 145 247 172 257 266 243 252 235 230 221 213 208 199 192 185 184 185 187 178 171 167 160 157 150 150 148 151 157 172 161 140 79 91 94
214 188 182 195 195 170 181 146 149 157 158 246 225 215 272 238 238 238 233 227 221 211 200 195 191 189 185 178 171 167 157 154 153 156 158 154 147 147 131 119 115 98 69 83
224 202 189 191 169 154 130 94 73 68 103 232 216 195 262 229 223 234 235 231 223 211 200 194 185 170 166 160 158 156 154 154 153 153 155 157 153 142 134 133 137 127 89 63
214 230 201 147 136 146 141 130 117 138 208 237 193 199 244 246 231 217 222 229 221 203 189 179 171 169 167 163 161 158 156 155 155 153 155 159 158 156 159 162 164 157 148 240
179 212 200 178 168 170 177 161 165 181 201 240 180 221 247 261 262 242 233 225 205 191 183 181 180 176 169 164 161 158 158 156 157 157 157 153 152 157 160 161 164 174 189 209
178 206 178 182 162 151 162 184 157 130 126 181 238 271 292 287 303 291 269 207 195 187 178 175 171 166 163 161 164 164 160 155 157 158 151 148 151 154 156 157 154 165 174 183
161 181 202 168 114 78 159 148 127 144 163 215 250 249 244 263 255 275 279 227 222 161 150 153 163 164 162 160 155 153 155 156 154 153 156 155 155 156 153 148 150 161 170 158
125 153 175 149 183 178 142 153 148 147 168 172 219 255 232 221 223 228 240 225 164 140 145 142 141 143 137 131 134 137 141 139 143 148 147 140 142 137 137 148 163 169 169 171
144 131 168 220 271 203 170 169 160 168 198 186 187 257 326 235 232 194 176 119 91 88 87 96 102 108 114 122 129 132 136 139 147 146 139 135 132 128 133 148 166 166 182 198
148 134 126 109 326 44 148 169 172 146 135 164 182 247 356 59 58 66 99 90 79 74 71 74 83 97 108 118 125 127 131 135 135 134 131 126 128 135 150 164 167 173 190 209
100 138 182 195 201 175 184 189 176 157 177 198 217 232 294 339 45 48 64 81 81 77 76 74 74 78 92 105 117 120 116 122 127 131 132 135 146 157 166 171 178 189 194 211
75 155 204 285 194 160 183 196 190 193 189 190 216 218 237 237 214 135 103 99 89 77 71 72 74 74 78 86 93 100 102 106 119 123 126 136 136 132 132 153 184 195 209 239
46 140 113 356 94 129 191 216 202 209 199 202 199 247 250 115 95 95 118 121 113 99 87 76 74 82 84 85 91 94 94 97 107 111 111 107 105 105 121 140 116 80 310 288
23 103 108 244 354 79 241 230 202 202 209 189 211 219 165 136 148 164 168 144 141 139 117 100 84 89 89 89 92 92 91 88 89 91 88 88 102 110 122 96 70 356 294 313
160 114 117 129 92 204 240 277 193 185 226 223 199 171 168 167 141 101 142 148 143 141 128 104 90 75 60 68 80 82 80 79 79 76 75 76 85 80 54 61 19 310 303 286
185 148 126 141 171 263 303 327 78 172 296 296 186 162 130 114 88 36 44 108 139 143 129 116 104 94 76 68 79 87 77 71 68 62 59 58 82 76 53 23 335 310 301 297
67 114 129 130 158 215 264 310 306 133 294 333 152 166 148 127 160 231 77 73 82 90 93 90 84 79 71 53 67 81 76 66 51 24 12 37 64 81 58 349 314 318 307 296
66 69 147 160 194 260 305 311 354 154 238 325 104 154 152 176 177 131 97 75 83 88 85 86 84 75 63 53 67 74 66 41 359 0 17 35 37 56 74 37 352 343 331 325
150 138 164 139 164 253 332 31 139 230 355 41 56 71 104 106 96 96 95 89 85 83 76 77 79 67 50 50 64 62 42 4 6 22 26 36 36 31 38 43 3 353 346 337
157 185 175 174 200 296 329 308 326 17 60 30 50 75 109 103 99 93 86 85 81 83 77 70 79 66 42 36 51 52 7 2 23 33 35 35 34 32 23 24 354 346 342 327
327 5 124 103 321 330 348 357 10 31 52 56 77 90 105 108 107 98 93 83 74 70 70 71 74 65 37 25 31 29 358 5 33 36 22 14 24 11 1 348 338 327 316 309
301 353 109 133 279 344 1 7 16 45 57 62 59 68 98 110 106 102 96 83 75 67 61 68 73 66 37 23 22 11 4 17 32 29 10 357 355 340 337 334 313 303 275 285
335 231 179 218 230 197 286 343 17 53 50 56 66 59 64 92 106 100 93 80 77 67 59 57 55 51 30 24 17 4 1 13 25 12 358 342 332 324 321 321 324 324 319 315
Height
1446 1450 1449 1450 1454 1456 1459 1464 1465 1465 1463 1465 1467 1467 1465 1464 1465 1466 1467 1468 1470 1473 1477 1480 1484 1487 1491 1494 1497 1501 1504 1507 1510 1513 1515 1517 1519 1521 1523 1524 1525 1526 1526 1526
1447 1445 1444 1448 1453 1455 1458 1462 1464 1464 1463 1465 1467 1467 1463 1462 1462 1462 1463 1465 1467 1470 1473 1476 1480 1483 1487 1490 1494 1497 1501 1504 1507 1510 1513 1516 1518 1520 1521 1522 1523 1524 1525 1525
1441 1441 1442 1447 1451 1455 1457 1460 1463 1464 1464 1465 1467 1466 1462 1458 1458 1459 1460 1461 1463 1465 1468 1472 1475 1479 1483 1486 1490 1494 1497 1501 1505 1508 1511 1514 1516 1518 1519 1520 1521 1522 1523 1523
1440 1439 1441 1445 1448 1451 1456 1456 1459 1462 1467 1472 1469 1473 1461 1458 1457 1456 1456 1457 1459 1461 1464 1467 1471 1474 1478 1482 1487 1490 1494 1498 1502 1505 1508 1510 1512 1514 1516 1518 1519 1520 1521 1521
1437 1437 1439 1442 1444 1448 1452 1454 1458 1462 1468 1474 1472 1474 1462 1458 1456 1453 1453 1453 1454 1457 1460 1463 1466 1470 1474 1479 1483 1487 1491 1495 1498 1502 1505 1508 1510 1512 1514 1516 1517 1518 1519 1519
1436 1436 1436 1438 1442 1446 1451 1456 1462 1467 1471 1475 1470 1473 1463 1458 1450 1449 1449 1449 1450 1453 1456 1459 1463 1467 1471 1475 1479 1483 1487 1491 1495 1498 1501 1504 1507 1509 1511 1513 1514 1515 1516 1516
1437 1436 1435 1436 1442 1447 1449 1459 1470 1474 1478 1472 1466 1466 1456 1449 1446 1445 1446 1446 1447 1450 1452 1455 1459 1463 1467 1471 1475 1479 1483 1487 1491 1495 1498 1501 1504 1506 1508 1510 1511 1512 1512 1513
1437 1438 1435 1435 1437 1442 1446 1450 1461 1467 1471 1470 1467 1464 1453 1446 1444 1443 1443 1444 1445 1447 1449 1452 1455 1459 1463 1467 1471 1475 1479 1483 1487 1491 1494 1498 1501 1503 1505 1507 1508 1509 1509 1510
1436 1436 1433 1433 1434 1438 1445 1449 1452 1463 1469 1470 1468 1463 1452 1444 1443 1442 1442 1443 1443 1445 1447 1449 1453 1456 1460 1463 1467 1471 1475 1480 1484 1488 1491 1494 1497 1500 1502 1504 1505 1506 1507 1507
1434 1438 1434 1433 1434 1437 1439 1445 1454 1460 1464 1462 1458 1457 1451 1444 1443 1442 1443 1442 1443 1444 1445 1448 1451 1454 1457 1461 1464 1469 1472 1476 1480 1484 1488 1491 1494 1496 1499 1500 1502 1503 1504 1504
1433 1438 1438 1435 1435 1437 1441 1445 1448 1456 1459 1459 1459 1452 1443 1442 1442 1443 1443 1442 1442 1443 1444 1446 1449 1452 1455 1459 1462 1466 1470 1474 1478 1481 1485 1488 1490 1493 1495 1497 1498 1499 1500 1500
1433 1437 1441 1439 1436 1435 1436 1439 1446 1451 1459 1460 1458 1453 1442 1441 1441 1441 1442 1442 1443 1443 1445 1446 1448 1451 1454 1457 1460 1464 1467 1471 1475 1479 1482 1485 1487 1490 1492 1493 1495 1496 1496 1497
1432 1437 1440 1439 1442 1439 1438 1440 1442 1446 1455 1461 1457 1450 1442 1442 1442 1442 1443 1443 1444 1444 1445 1447 1449 1451 1453 1456 1459 1462 1466 1469 1473 1476 1479 1482 1484 1486 1488 1490 1491 1492 1493 1493
1429 1435 1436 1434 1432 1437 1440 1440 1441 1443 1450 1455 1450 1446 1444 1443 1443 1444 1444 1445 1445 1446 1447 1448 1449 1451 1453 1456 1459 1462 1465 1468 1471 1474 1477 1479 1481 1483 1485 1486 1488 1488 1489 1489
1431 1437 1437 1434 1432 1433 1434 1436 1438 1439 1441 1445 1444 1445 1443 1443 1444 1444 1445 1445 1446 1447 1448 1449 1450 1452 1454 1456 1459 1461 1464 1466 1469 1472 1474 1476 1478 1480 1482 1483 1484 1485 1485 1485
1435 1438 1437 1437 1433 1433 1435 1436 1436 1437 1440 1441 1443 1445 1442 1443 1444 1444 1445 1445 1446 1448 1449 1450 1451 1453 1455 1457 1459 1461 1463 1465 1468 1470 1472 1474 1476 1477 1479 1480 1480 1481 1481 1481
1438 1440 1439 1441 1438 1434 1439 1438 1438 1438 1439 1438 1439 1439 1441 1443 1444 1445 1445 1446 1447 1448 1449 1450 1452 1453 1455 1456 1458 1460 1462 1464 1466 1468 1470 1472 1473 1474 1476 1477 1477 1477 1477 1477
1438 1440 1443 1444 1442 1440 1439 1437 1436 1436 1437 1437 1436 1437 1438 1441 1443 1445 1445 1446 1447 1448 1450 1451 1452 1454 1455 1457 1458 1460 1461 1463 1465 1466 1468 1469 1471 1472 1473 1473 1474 1474 1474 1474
1435 1439 1443 1445 1444 1441 1439 1438 1438 1437 1438 1437 1436 1437 1439 1440 1442 1445 1445 1446 1447 1449 1450 1451 1452 1454 1455 1456 1458 1459 1460 1462 1463 1465 1466 1467 1468 1469 1470 1470 1470 1470 1470 1470
1437 1438 1444 1446 1443 1439 1439 1438 1436 1437 1439 1437 1436 1437 1438 1440 1444 1446 1445 1446 1447 1448 1449 1451 1452 1454 1455 1456 1458 1459 1460 1461 1462 1463 1464 1465 1466 1467 1467 1467 1467 1467 1467 1467
1441 1443 1445 1446 1447 1444 1442 1438 1436 1441 1439 1438 1437 1437 1438 1440 1441 1444 1444 1445 1446 1448 1449 1451 1452 1454 1455 1457 1458 1458 1459 1460 1461 1462 1463 1463 1464 1464 1465 1465 1465 1464 1464 1463
1444 1446 1448 1449 1448 1447 1442 1439 1440 1440 1438 1437 1437 1438 1438 1439 1441 1442 1443 1444 1446 1447 1449 1451 1452 1454 1456 1457 1458 1458 1459 1459 1460 1460 1461 1461 1462 1462 1462 1462 1462 1462 1461 1460
1445 1446 1446 1447 1448 1445 1443 1441 1440 1439 1438 1438 1438 1438 1439 1439 1441 1442 1444 1445 1446 1448 1450 1451 1453 1454 1456 1457 1457 1458 1458 1459 1459 1459 1459 1460 1460 1460 1460 1460 1459 1459 1458 1457
1445 1444 1445 1447 1446 1444 1443 1441 1440 1439 1439 1439 1439 1439 1439 1440 1441 1443 1444 1446 1447 1449 1450 1452 1453 1454 1455 1456 1457 1457 1457 1458 1458 1458 1458 1458 1458 1458 1458 1457 1457 1456 1455 1455
1447 1445 1446 1447 1446 1444 1442 1442 1441 1440 1440 1440 1440 1440 1441 1441 1442 1444 1445 1446 1448 1449 1451 1452 1453 1454 1455 1455 1456 1456 1456 1456 1456 1456 1456 1456 1455 1455 1455 1455 1454 1453 1453 1453
1448 1447 1446 1445 1444 1444 1444 1443 1442 1441 1441 1441 1441 1441 1442 1443 1443 1444 1446 1447 1449 1450 1451 1452 1453 1453 1454 1454 1455 1455 1455 1454 1454 1453 1454 1453 1453 1453 1452 1452 1452 1451 1451 1450